Probability
0 0 0 0 0 0 0 0 0 0 0 0 0 0 0 0 0 0 3 16 16 26 35 32 32 29 26 23 19 26 23 23 16 16 19 19 16 16 13 10 10 6 10
0 0 0 0 0 0 0 0 0 0 0 0 0 0 0 0 0 0 0 3 19 19 23 26 32 23 23 19 19 23 26 19 19 13 16 13 13 16 13 13 13 13 13
0 0 0 0 0 0 0 0 0 0 0 0 0 0 0 0 0 0 0 0 0 16 23 23 29 26 19 19 23 29 26 23 19 16 13 16 16 10 6 10 6 6 6
0 0 0 0 0 0 0 0 0 0 0 0 0 0 0 0 0 0 0 0 0 0 6 16 16 16 19 19 23 26 29 23 16 13 13 19 16 10 6 3 3 6 3
0 0 0 0 0 0 0 0 0 0 0 0 0 0 0 0 0 0 0 0 0 0 3 3 10 13 16 16 19 26 23 16 19 19 10 6 6 6 6 6 3 3 3
0 0 0 0 0 0 0 0 0 0 0 0 0 0 0 0 0 0 0 0 0 3 3 3 3 3 10 6 10 10 19 16 13 13 13 6 6 3 6 6 6 3 3
0 0 0 0 0 0 0 0 0 0 0 0 0 0 0 0 0 0 0 0 0 0 0 0 3 3 3 3 6 13 16 13 10 10 10 6 10 3 3 6 6 6 3
0 0 0 0 0 0 0 0 0 0 0 0 0 0 0 0 0 0 0 0 0 0 0 0 0 0 0 0 0 3 6 6 13 3 3 3 3 3 3 3 3 3 3
0 0 0 0 0 0 0 0 0 0 0 0 0 0 0 0 0 0 0 0 0 0 0 0 0 0 0 0 0 0 0 3 3 6 3 3 3 3 3 3 3 3 3
0 0 0 0 0 0 0 0 0 0 0 0 0 0 0 0 0 0 0 0 0 0 0 0 0 0 0 0 0 0 0 0 3 3 3 0 0 3 3 3 3 3 3
0 0 0 0 0 0 0 0 0 0 0 0 0 0 0 0 0 0 0 0 0 0 0 0 0 0 0 0 0 0 0 0 0 3 3 0 0 0 3 3 3 3 3
0 0 0 0 0 0 0 0 0 0 0 0 0 0 0 0 0 0 0 0 0 0 0 0 0 0 0 0 0 0 0 0 0 0 0 0 0 0 3 0 0 3 3
0 0 0 0 0 0 0 0 0 0 0 0 0 0 0 0 0 0 0 0 0 0 0 0 0 0 0 0 0 0 0 0 0 0 0 0 3 3 3 0 0 0 0
0 0 0 0 0 0 0 0 0 0 0 0 0 0 0 0 0 0 0 0 0 0 0 0 0 0 0 0 0 0 0 0 0 0 0 0 0 3 3 6 6 6 3
0 0 0 0 0 0 0 0 0 0 0 0 0 0 0 0 0 0 0 0 0 0 0 0 0 0 0 0 0 0 0 0 0 0 0 0 0 0 3 3 3 6 6
0 0 0 0 0 0 0 0 0 0 0 0 0 0 0 0 0 0 0 0 0 0 0 0 0 0 0 0 0 0 0 0 0 0 0 0 0 0 0 0 0 0 0
0 0 0 0 0 0 0 0 0 0 0 0 0 0 0 0 0 0 0 0 0 0 0 0 0 0 0 0 0 0 0 0 0 0 0 0 0 0 0 0 0 0 0
0 0 0 0 0 0 0 0 0 0 0 0 0 0 0 0 0 0 0 0 0 0 0 0 0 0 0 0 0 0 0 0 0 0 0 0 0 0 0 0 0 0 0
0 0 0 0 0 0 0 0 0 0 0 0 0 0 0 0 0 0 0 0 0 0 0 0 0 0 0 0 0 0 0 0 0 0 0 0 0 0 0 0 0 0 0
0 0 0 0 0 0 0 0 0 0 0 0 0 0 0 0 0 0 0 0 0 0 0 0 0 0 0 0 0 0 0 0 0 0 0 0 0 0 0 0 0 0 0
0 0 0 0 0 0 0 0 0 0 0 0 0 0 0 0 0 0 0 0 0 0 0 0 0 0 0 0 0 0 0 0 0 0 0 0 0 0 0 0 0 0 0
0 0 0 0 0 0 0 0 0 0 0 0 0 0 0 0 0 0 0 0 0 0 0 0 0 0 0 0 0 0 0 0 0 0 0 0 0 0 0 0 0 0 0
0 0 0 0 0 0 0 0 0 0 0 0 0 0 0 0 0 0 0 0 0 0 0 0 0 0 0 0 0 0 0 0 0 0 0 0 0 0 0 0 0 0 0
0 0 0 0 0 0 0 0 0 0 0 0 0 0 0 0 0 0 0 0 0 0 0 0 0 0 0 0 0 0 0 0 0 0 0 0 0 0 0 0 0 0 0
0 0 0 0 0 0 0 0 0 0 0 0 0 0 0 0 0 0 0 0 0 0 0 0 0 0 0 0 0 0 0 0 0 0 0 0 0 0 0 0 0 0 0
0 0 0 0 0 0 0 0 0 0 0 0 0 0 0 0 0 0 0 0 0 0 0 0 0 0 0 0 0 0 0 0 0 0 0 0 0 0 0 0 0 0 0
Height
5868 5867 5866 5866 5865 5865 5865 5864 5864 5863 5863 5863 5863 5862 5862 5862 5861 5861 5860 5860 5860 5859 5859 5859 5859 5859 5859 5859 5858 5858 5858 5858 5858 5858 5858 5858 5858 5858 5857 5857 5857 5856 5855
5866 5865 5865 5864 5864 5863 5863 5863 5862 5862 5861 5861 5861 5860 5860 5860 5859 5859 5859 5858 5858 5858 5857 5857 5857 5857 5857 5857 5857 5857 5856 5856 5856 5856 5856 5856 5856 5855 5855 5855 5855 5854 5854
5864 5863 5863 5862 5862 5861 5861 5861 5860 5860 5859 5859 5859 5859 5858 5858 5858 5857 5857 5857 5856 5856 5856 5855 5855 5855 5855 5855 5855 5855 5855 5854 5854 5854 5854 5854 5854 5853 5853 5853 5852 5852 5852
5862 5862 5861 5860 5860 5860 5859 5858 5858 5858 5857 5857 5857 5857 5856 5856 5856 5856 5856 5855 5855 5854 5854 5854 5853 5853 5853 5853 5853 5852 5852 5852 5852 5852 5852 5852 5852 5851 5851 5851 5850 5850 5850
5861 5860 5859 5859 5858 5858 5857 5856 5856 5856 5856 5855 5855 5855 5855 5855 5854 5854 5854 5854 5853 5853 5852 5852 5852 5851 5851 5851 5850 5850 5850 5850 5850 5850 5850 5850 5849 5849 5849 5848 5848 5848 5847
5859 5858 5857 5857 5856 5856 5855 5854 5854 5854 5854 5854 5853 5853 5853 5853 5853 5852 5852 5852 5851 5851 5850 5850 5850 5849 5849 5848 5848 5847 5847 5847 5847 5847 5847 5847 5847 5846 5846 5846 5845 5845 5845
5857 5856 5855 5855 5854 5854 5853 5852 5852 5852 5852 5852 5852 5851 5851 5851 5851 5850 5850 5850 5849 5849 5848 5848 5847 5847 5846 5846 5845 5845 5844 5844 5844 5843 5843 5843 5843 5843 5843 5843 5843 5842 5842
5855 5854 5853 5853 5853 5852 5851 5851 5851 5850 5850 5850 5850 5849 5849 5850 5849 5848 5848 5848 5847 5847 5846 5846 5845 5844 5844 5843 5842 5842 5841 5841 5841 5840 5840 5840 5840 5840 5840 5840 5839 5839 5838
5853 5852 5852 5851 5851 5850 5850 5849 5849 5848 5848 5848 5848 5848 5847 5847 5847 5846 5846 5846 5845 5844 5844 5843 5842 5842 5841 5840 5839 5838 5838 5838 5837 5837 5837 5837 5837 5837 5837 5836 5836 5835 5835
5851 5850 5850 5849 5849 5848 5848 5848 5847 5847 5846 5846 5845 5845 5845 5845 5845 5844 5844 5843 5843 5842 5842 5841 5840 5839 5838 5837 5837 5836 5835 5835 5834 5834 5834 5833 5833 5833 5833 5833 5832 5832 5831
5849 5848 5848 5847 5847 5846 5846 5846 5845 5845 5844 5844 5843 5843 5842 5842 5842 5841 5841 5841 5840 5840 5839 5838 5837 5836 5836 5835 5834 5833 5832 5832 5831 5831 5831 5830 5830 5830 5830 5829 5829 5828 5827
5846 5846 5846 5845 5845 5844 5844 5843 5843 5842 5842 5841 5841 5840 5840 5839 5839 5839 5838 5838 5837 5837 5836 5836 5835 5834 5833 5832 5831 5830 5830 5829 5829 5828 5828 5828 5827 5827 5826 5826 5825 5824 5823
5844 5843 5843 5842 5842 5841 5841 5841 5840 5839 5839 5838 5838 5837 5837 5836 5836 5836 5835 5835 5834 5834 5833 5833 5832 5831 5830 5830 5829 5828 5827 5827 5826 5826 5825 5825 5824 5824 5823 5822 5821 5820 5819
5841 5840 5839 5839 5839 5838 5838 5837 5837 5836 5836 5835 5835 5834 5834 5833 5833 5832 5832 5832 5831 5831 5830 5830 5829 5828 5828 5827 5826 5825 5825 5824 5823 5823 5822 5822 5821 5820 5819 5818 5817 5816 5814
5837 5836 5836 5835 5835 5835 5834 5834 5833 5833 5832 5832 5831 5831 5830 5829 5829 5829 5828 5828 5828 5828 5827 5827 5826 5825 5825 5824 5823 5822 5822 5821 5820 5820 5819 5818 5817 5816 5815 5814 5813 5811 5810
5833 5832 5832 5832 5831 5831 5830 5830 5829 5829 5828 5828 5827 5827 5826 5826 5825 5825 5824 5824 5824 5824 5824 5823 5823 5822 5821 5821 5820 5819 5818 5818 5817 5816 5815 5814 5813 5812 5811 5809 5808 5806 5804
5828 5828 5828 5827 5827 5827 5826 5826 5825 5825 5824 5824 5823 5823 5822 5822 5821 5821 5820 5820 5820 5820 5820 5819 5819 5818 5818 5817 5816 5815 5815 5814 5813 5812 5811 5810 5809 5808 5806 5804 5803 5801 5799
5824 5823 5823 5823 5823 5822 5822 5821 5821 5820 5820 5819 5818 5818 5818 5817 5817 5817 5816 5816 5816 5816 5816 5815 5815 5814 5814 5813 5812 5812 5811 5810 5809 5808 5807 5806 5804 5803 5801 5800 5798 5795 5793
5818 5818 5818 5817 5817 5817 5817 5816 5815 5815 5815 5814 5814 5813 5813 5813 5812 5812 5812 5812 5811 5811 5811 5811 5811 5810 5809 5808 5808 5807 5806 5805 5804 5803 5802 5801 5799 5798 5796 5794 5792 5790 5787
5813 5812 5812 5812 5812 5811 5811 5810 5810 5810 5809 5809 5808 5808 5808 5808 5808 5807 5807 5807 5807 5807 5806 5806 5806 5805 5804 5804 5803 5802 5801 5800 5799 5798 5797 5795 5794 5792 5791 5789 5786 5784 5781
5807 5807 5806 5806 5806 5805 5805 5804 5804 5804 5803 5803 5803 5803 5802 5802 5802 5802 5802 5802 5802 5801 5801 5801 5800 5800 5799 5798 5798 5797 5796 5795 5794 5793 5792 5790 5788 5786 5784 5782 5780 5778 5775
5801 5801 5801 5800 5800 5800 5799 5798 5798 5798 5798 5797 5797 5797 5797 5796 5796 5796 5796 5796 5796 5796 5795 5795 5795 5794 5794 5793 5792 5791 5791 5790 5789 5788 5786 5784 5782 5780 5778 5776 5774 5771 5768
5795 5795 5795 5794 5794 5794 5793 5793 5792 5792 5792 5791 5791 5791 5790 5790 5790 5790 5790 5790 5790 5789 5789 5789 5789 5788 5788 5787 5786 5785 5785 5784 5783 5781 5780 5778 5776 5774 5772 5770 5767 5765 5762
5789 5789 5789 5789 5788 5788 5787 5787 5786 5786 5786 5785 5785 5785 5784 5784 5784 5784 5784 5784 5783 5783 5783 5782 5782 5782 5781 5780 5780 5779 5778 5777 5776 5775 5773 5772 5769 5767 5765 5763 5761 5758 5756
5783 5783 5783 5783 5782 5782 5781 5781 5780 5780 5780 5779 5779 5779 5778 5778 5778 5777 5777 5777 5777 5776 5776 5776 5775 5775 5774 5774 5773 5772 5771 5770 5769 5768 5766 5765 5763 5761 5759 5756 5754 5751 5749
5776 5776 5776 5776 5776 5776 5775 5775 5774 5774 5774 5773 5773 5773 5772 5771 5771 5770 5770 5770 5770 5770 5769 5769 5768 5768 5767 5766 5765 5765 5764 5763 5762 5761 5759 5757 5756 5754 5752 5750 5747 5744 5741
Wind_Speed
7 7 7 8 8 8 8 8 8 8 8 8 8 8 8 8 8 7 6 7 7 7 7 7 7 7 7 6 6 6 6 6 6 6 7 8 8 9 10 10 11 10 11
7 7 7 8 8 9 9 9 9 9 9 9 8 8 8 8 7 7 7 7 7 7 7 7 7 7 6 7 7 7 6 6 7 7 7 7 7 7 8 9 10 9 9
7 7 8 8 9 9 8 9 9 9 9 9 8 8 8 8 7 7 7 6 7 7 7 7 7 7 7 7 7 7 7 7 7 7 7 7 7 7 7 8 9 8 8
7 8 8 9 8 8 9 9 9 9 8 8 8 8 7 7 7 7 7 7 7 7 7 7 7 7 8 8 7 8 8 8 8 8 8 8 8 8 9 9 8 9 10
7 8 8 8 8 8 8 8 8 8 8 8 8 8 8 8 8 8 8 8 8 8 8 8 8 8 9 9 9 9 9 9 9 10 9 9 9 10 10 10 9 10 10
8 8 8 8 8 7 7 7 7 7 8 8 8 8 8 8 8 8 8 8 8 8 8 8 9 9 9 9 10 10 10 11 11 11 11 10 10 11 10 11 11 11 11
8 8 8 7 7 7 7 7 7 7 8 8 8 8 8 8 8 8 8 9 9 9 9 9 9 9 10 10 11 11 12 11 11 11 12 12 12 12 12 12 12 13 13
7 7 7 7 7 7 8 8 7 7 8 8 8 7 7 7 8 8 9 9 9 9 9 9 9 10 10 10 10 11 11 11 11 11 12 11 12 12 13 13 13 13 13
7 7 8 8 7 7 7 7 7 7 7 7 7 7 8 8 8 8 9 9 9 9 9 10 9 10 10 9 10 10 11 12 12 12 11 12 12 13 13 13 13 13 13
8 8 8 8 8 8 7 7 7 7 8 8 8 8 8 8 9 9 9 9 9 9 9 10 10 9 9 9 9 10 10 10 11 11 12 12 12 12 12 12 12 13 14
9 9 9 8 8 9 9 8 8 8 8 9 9 9 9 9 9 9 10 10 9 9 10 9 10 10 10 9 9 10 10 9 9 10 10 10 11 11 12 12 13 14 15
10 10 10 9 9 9 9 9 9 9 10 10 10 10 10 10 10 10 9 9 10 10 10 10 10 10 10 9 9 9 9 10 10 10 10 10 11 11 12 12 13 14 15
10 11 11 10 10 10 10 10 10 10 11 11 11 10 11 10 10 10 10 10 10 10 10 10 10 10 10 9 10 9 9 9 9 10 10 11 11 12 13 13 14 15 16
12 12 12 12 12 11 11 12 11 11 12 12 12 11 11 11 11 11 11 11 11 11 11 11 11 11 11 10 10 9 9 9 10 11 11 12 13 13 14 14 15 16 16
13 13 13 13 12 13 13 13 13 12 12 13 13 13 13 12 12 12 12 12 12 12 11 11 11 11 11 11 11 11 11 11 11 11 12 13 14 14 15 15 16 17 18
15 15 14 14 13 13 13 13 14 13 13 13 13 13 13 12 12 13 13 12 12 11 12 12 12 12 12 12 12 12 12 12 12 13 13 13 14 15 16 17 18 19 20
15 16 16 15 15 15 14 14 14 14 14 14 14 14 14 13 13 13 13 12 12 12 12 12 13 13 13 13 14 13 13 13 13 14 14 15 15 16 17 18 19 19 19
16 16 16 16 16 16 16 16 15 14 15 15 15 15 15 14 14 14 13 13 13 14 14 14 14 14 14 15 15 15 14 14 15 15 16 16 17 17 18 18 19 19 20
16 17 17 17 17 18 18 17 17 16 15 16 16 15 15 15 15 14 14 14 14 15 15 15 15 15 15 15 15 16 15 15 16 17 17 18 18 18 19 19 20 20 21
18 18 18 18 18 18 18 18 18 17 17 16 16 16 16 16 16 15 15 15 16 16 16 16 16 16 16 16 16 17 17 17 18 18 19 19 20 20 20 20 21 21 22
18 18 18 19 19 19 19 19 19 18 18 17 17 17 17 17 17 17 17 17 17 17 17 17 17 17 17 17 17 17 18 18 19 19 20 20 20 21 21 22 22 23 24
19 18 18 19 19 19 19 19 20 20 20 19 19 18 19 18 18 18 18 19 18 18 18 18 18 18 18 18 18 18 18 19 19 19 20 20 21 21 22 22 23 23 24
20 19 18 18 18 18 18 19 19 19 19 19 19 19 19 19 19 19 20 20 20 20 19 19 19 19 19 19 19 20 20 20 20 21 21 21 22 22 22 22 23 23 24
20 20 20 19 19 19 19 20 20 19 19 19 19 19 19 20 20 20 20 20 20 20 20 20 20 20 20 20 20 21 22 22 22 22 22 22 22 23 23 23 24 24 24
21 20 21 20 20 20 20 19 19 19 19 19 19 19 20 20 20 20 20 20 20 20 20 21 21 21 21 22 22 22 22 23 23 23 23 23 23 24 24 25 25 25 26
21 21 21 21 21 21 21 20 20 20 20 20 19 19 20 21 21 21 21 21 21 22 22 23 22 22 23 23 23 23 24 24 24 24 25 25 25 25 25 26 26 27 27
Wind_Direction
293 290 284 278 278 281 286 287 283 283 279 276 276 274 271 273 272 274 278 275 270 268 267 267 266 265 262 264 268 272 262 254 256 256 257 264 269 265 260 263 261 255 250
297 292 288 285 289 289 286 282 281 279 275 273 271 269 273 273 267 270 276 274 269 266 266 264 264 263 264 263 261 263 264 260 258 257 259 267 270 271 263 267 267 260 251
296 293 290 289 292 292 292 285 280 276 272 270 270 271 271 270 268 272 274 274 270 267 266 267 264 264 268 265 262 260 263 265 266 265 263 266 271 273 268 270 272 267 262
294 291 289 287 290 291 291 289 282 276 270 273 275 274 271 270 271 271 272 276 278 276 270 268 268 267 267 266 265 264 267 266 266 267 265 266 268 270 269 268 271 273 270
288 290 292 290 289 292 291 286 282 274 268 270 273 273 273 272 272 273 273 273 277 280 278 273 273 270 268 268 268 268 268 268 265 263 264 267 269 271 270 267 269 273 274
284 286 289 291 292 293 292 289 286 276 269 268 268 270 273 272 271 273 275 275 277 279 277 275 276 273 272 273 270 268 269 271 267 264 266 270 269 270 271 271 274 275 278
286 283 284 284 288 295 294 297 288 273 268 267 268 268 271 270 271 274 275 274 274 275 274 276 275 274 274 274 272 271 269 269 268 265 264 267 267 268 272 275 276 278 279
291 287 286 290 288 289 291 292 284 281 278 273 271 269 270 271 273 275 276 274 273 274 276 276 275 275 274 275 273 271 267 268 270 267 264 267 269 271 274 275 276 277 278
283 285 287 289 288 288 289 288 286 282 284 280 275 275 274 271 272 274 274 273 275 276 278 280 279 280 277 276 274 272 272 271 271 268 265 266 268 271 274 276 277 277 278
283 285 284 285 283 284 285 286 283 284 283 282 279 275 275 274 272 271 273 273 275 277 278 279 277 278 278 276 272 273 276 273 271 267 264 266 268 271 273 275 277 280 280
280 283 284 284 282 279 281 278 276 280 284 284 282 279 276 274 272 271 272 275 276 277 279 280 279 279 279 278 276 279 279 276 273 269 270 271 271 272 274 278 279 283 283
277 281 279 282 283 282 278 272 273 276 280 282 281 279 276 274 271 271 272 273 273 275 276 277 279 276 277 279 277 281 281 279 274 274 274 275 276 279 281 280 281 283 286
276 277 275 276 280 281 278 275 276 277 276 278 279 280 277 273 271 271 271 272 273 273 274 275 276 274 277 280 281 280 281 279 276 274 276 276 277 280 282 282 283 284 287
274 272 272 274 275 277 277 276 276 277 274 275 276 276 275 271 271 269 268 269 271 272 273 275 275 275 275 279 281 280 282 281 279 276 277 279 281 283 284 285 284 285 289
272 271 271 272 273 276 278 278 278 278 275 275 274 273 273 273 274 272 270 268 269 272 273 273 274 275 278 278 280 282 283 281 280 279 281 283 285 287 287 288 287 288 290
269 270 270 271 273 276 279 281 281 279 276 275 273 274 274 274 273 271 271 270 269 270 272 274 274 274 277 279 281 283 282 283 284 282 283 286 288 289 289 290 290 291 291
270 269 268 270 273 276 278 279 279 278 276 276 276 274 273 273 271 270 268 268 269 269 269 273 275 276 278 280 280 280 280 279 281 282 284 286 288 290 292 293 293 293 292
270 269 266 267 271 274 276 277 277 277 276 276 276 274 273 273 271 270 268 267 268 270 270 272 274 277 278 279 278 278 281 280 280 282 285 288 290 291 292 293 294 294 294
271 272 271 270 271 273 274 275 275 274 274 274 274 273 273 273 271 269 268 268 269 270 271 273 274 276 277 278 279 279 281 281 283 285 287 289 290 290 291 292 293 294 294
273 274 272 270 270 272 273 273 273 272 272 273 272 271 272 271 269 269 269 270 270 270 271 273 273 273 274 275 277 278 279 282 284 286 287 288 289 289 290 292 293 293 294
272 271 271 269 270 272 273 273 272 270 270 271 271 270 271 269 268 268 270 270 271 271 272 274 274 273 274 276 276 278 280 283 284 286 287 288 289 289 291 292 292 292 292
271 271 270 270 272 274 275 275 274 271 269 270 271 271 271 269 267 267 268 269 270 271 271 272 273 274 275 275 276 278 280 282 284 286 288 289 289 289 290 291 293 293 293
270 271 272 271 271 274 276 277 278 276 273 272 273 273 272 270 268 268 268 269 270 271 271 270 271 273 274 275 276 278 281 283 285 286 287 290 292 292 292 293 294 295 296
271 270 270 270 272 272 273 275 276 275 274 273 273 273 272 271 271 271 271 271 270 270 270 270 271 273 272 273 276 279 280 282 284 286 288 289 291 293 294 294 294 295 297
269 269 269 270 271 271 271 272 274 274 273 272 272 272 272 271 271 271 272 271 269 270 271 272 273 273 273 274 277 278 280 282 284 285 286 288 289 291 292 293 295 296 297
267 266 266 268 270 271 271 272 273 271 271 271 272 273 273 272 272 273 272 270 269 271 272 273 274 274 274 274 276 277 278 281 282 285 286 287 288 289 290 292 295 296 297